Time,TemperatureF,DewpointF,PressureIn,WindDirection,WindDirectionDegrees,WindSpeedMPH,WindSpeedGustMPH,Humidity,HourlyPrecipIn,Conditions,Clouds,dailyrainin,SoftwareType,DateUTC
2014-01-31 00:01:00,28.2,14.0,29.70,NW,319,5.8,6.2,55,0.00,,---,0.00,VWS V14.01,2014-01-31 05:01:00,
2014-01-31 00:02:00,28.3,13.4,29.71,NW,319,6.3,7.3,53,0.00,,---,0.00,VWS V14.01,2014-01-31 05:02:00,
2014-01-31 00:03:00,28.3,12.9,29.70,NW,325,4.2,4.8,52,0.00,,---,0.00,VWS V14.01,2014-01-31 05:03:00,
2014-01-31 00:04:00,28.3,13.4,29.70,NW,319,5.4,6.3,53,0.00,,---,0.00,VWS V14.01,2014-01-31 05:04:00,
2014-01-31 00:09:00,28.7,12.7,29.70,NNW,335,4.7,5.0,51,0.00,,---,0.00,VWS V14.01,2014-01-31 05:09:00,
2014-01-31 00:14:00,28.9,13.3,29.69,NW,315,5.1,5.5,52,0.00,,---,0.00,VWS V14.01,2014-01-31 05:14:00,
2014-01-31 00:16:00,29.0,14.0,29.69,NW,321,3.4,4.3,53,0.00,,---,0.00,VWS V14.01,2014-01-31 05:16:00,
2014-01-31 00:21:00,28.8,14.9,29.70,NW,318,4.3,4.3,56,0.00,,---,0.00,VWS V14.01,2014-01-31 05:21:00,
2014-01-31 00:26:00,28.3,14.3,29.70,NW,326,3.5,4.6,55,0.00,,---,0.00,VWS V14.01,2014-01-31 05:26:00,
2014-01-31 00:31:00,28.3,14.1,29.70,WNW,301,3.1,4.7,55,0.00,,---,0.00,VWS V14.01,2014-01-31 05:31:00,
2014-01-31 00:36:00,28.2,14.5,29.70,NW,312,3.0,4.2,56,0.00,,---,0.00,VWS V14.01,2014-01-31 05:36:00,
2014-01-31 00:41:00,28.2,14.7,29.70,NW,311,2.9,2.9,56,0.00,,---,0.00,VWS V14.01,2014-01-31 05:41:00,
2014-01-31 00:46:00,28.1,14.6,29.70,NW,308,3.2,3.2,56,0.00,,---,0.00,VWS V14.01,2014-01-31 05:46:00,
2014-01-31 00:51:00,28.2,14.4,29.71,NNW,333,2.9,3.0,56,0.00,,---,0.00,VWS V14.01,2014-01-31 05:51:00,
2014-01-31 00:57:00,28.6,13.8,29.71,NW,315,2.7,3.2,53,0.00,,---,0.00,VWS V14.01,2014-01-31 05:57:00,
2014-01-31 01:02:00,29.1,14.0,29.70,NW,319,2.0,3.7,53,0.00,,---,0.00,VWS V14.01,2014-01-31 06:02:00,
2014-01-31 01:07:00,29.7,14.4,29.71,NW,318,3.3,4.5,52,0.00,,---,0.00,VWS V14.01,2014-01-31 06:07:00,
2014-01-31 01:12:00,30.3,15.7,29.71,NW,312,2.8,3.4,54,0.00,,---,0.00,VWS V14.01,2014-01-31 06:12:00,
2014-01-31 01:17:00,30.6,16.5,29.71,NW,318,3.5,3.5,55,0.00,,---,0.00,VWS V14.01,2014-01-31 06:17:00,
2014-01-31 01:22:00,30.5,16.3,29.71,NW,307,4.5,4.6,55,0.00,,---,0.00,VWS V14.01,2014-01-31 06:22:00,
2014-01-31 01:27:00,30.8,16.3,29.71,NW,318,3.4,3.4,54,0.00,,---,0.00,VWS V14.01,2014-01-31 06:27:00,
2014-01-31 01:32:00,30.8,16.6,29.70,NW,325,3.7,4.0,55,0.00,,---,0.00,VWS V14.01,2014-01-31 06:32:00,
2014-01-31 01:37:00,30.9,16.2,29.70,NW,323,2.7,3.3,54,0.00,,---,0.00,VWS V14.01,2014-01-31 06:37:00,
2014-01-31 01:42:00,30.9,16.2,29.70,NW,319,4.0,4.2,54,0.00,,---,0.00,VWS V14.01,2014-01-31 06:42:00,
2014-01-31 01:47:00,31.0,16.4,29.70,WNW,285,2.9,3.0,54,0.00,,---,0.00,VWS V14.01,2014-01-31 06:47:00,
2014-01-31 01:52:00,31.0,16.0,29.70,WNW,300,4.2,5.1,53,0.00,,---,0.00,VWS V14.01,2014-01-31 06:52:00,
2014-01-31 01:57:00,30.8,16.0,29.69,NW,326,3.6,3.8,54,0.00,,---,0.00,VWS V14.01,2014-01-31 06:57:00,
2014-01-31 02:02:00,30.5,16.4,29.69,NW,319,2.9,3.6,55,0.00,,---,0.00,VWS V14.01,2014-01-31 07:02:00,
2014-01-31 02:08:00,30.5,16.6,29.70,NW,314,2.6,2.6,56,0.00,,---,0.00,VWS V14.01,2014-01-31 07:08:00,
2014-01-31 02:13:00,30.4,15.9,29.70,NW,311,2.7,2.8,54,0.00,,---,0.00,VWS V14.01,2014-01-31 07:13:00,
2014-01-31 02:18:00,30.7,16.0,29.70,NW,319,2.9,3.0,54,0.00,,---,0.00,VWS V14.01,2014-01-31 07:18:00,
2014-01-31 02:23:00,30.5,15.6,29.70,NW,315,3.9,4.3,53,0.00,,---,0.00,VWS V14.01,2014-01-31 07:23:00,
2014-01-31 02:28:00,30.7,15.9,29.71,WNW,302,3.2,3.2,54,0.00,,---,0.00,VWS V14.01,2014-01-31 07:28:00,
2014-01-31 02:33:00,30.7,16.3,29.71,NW,307,0.0,0.0,55,0.00,,---,0.00,VWS V14.01,2014-01-31 07:33:00,
2014-01-31 02:38:00,30.8,16.4,29.71,WNW,300,4.1,4.2,55,0.00,,---,0.00,VWS V14.01,2014-01-31 07:38:00,
2014-01-31 02:43:00,30.9,16.5,29.71,NW,323,2.4,2.9,55,0.00,,---,0.00,VWS V14.01,2014-01-31 07:43:00,
2014-01-31 02:48:00,30.8,16.4,29.71,NW,315,0.0,0.0,55,0.00,,---,0.00,VWS V14.01,2014-01-31 07:48:00,
2014-01-31 02:53:00,30.9,16.1,29.71,WNW,288,0.0,1.1,54,0.00,,---,0.00,VWS V14.01,2014-01-31 07:53:00,
2014-01-31 02:58:00,30.8,16.5,29.71,WNW,294,0.0,0.0,55,0.00,,---,0.00,VWS V14.01,2014-01-31 07:58:00,
2014-01-31 03:03:00,30.7,17.0,29.71,NW,315,2.2,2.5,56,0.00,,---,0.00,VWS V14.01,2014-01-31 08:03:00,
2014-01-31 03:08:00,30.5,17.2,29.71,NW,315,3.7,4.0,57,0.00,,---,0.00,VWS V14.01,2014-01-31 08:08:00,
2014-01-31 03:13:00,30.2,17.6,29.71,NW,322,2.2,3.2,59,0.00,,---,0.00,VWS V14.01,2014-01-31 08:13:00,
2014-01-31 03:18:00,29.9,17.6,29.70,NW,321,3.9,3.9,60,0.00,,---,0.00,VWS V14.01,2014-01-31 08:18:00,
2014-01-31 03:23:00,29.7,17.6,29.70,WNW,300,4.7,4.7,60,0.00,,---,0.00,VWS V14.01,2014-01-31 08:23:00,
2014-01-31 03:29:00,29.6,17.7,29.69,NW,308,1.7,1.9,61,0.00,,---,0.00,VWS V14.01,2014-01-31 08:29:00,
2014-01-31 03:34:00,29.6,17.9,29.70,NW,316,3.6,4.7,61,0.00,,---,0.00,VWS V14.01,2014-01-31 08:34:00,
2014-01-31 03:39:00,29.6,17.9,29.70,NW,304,2.7,2.7,61,0.00,,---,0.00,VWS V14.01,2014-01-31 08:39:00,
2014-01-31 03:44:00,29.6,17.5,29.70,NW,304,3.9,3.9,60,0.00,,---,0.00,VWS V14.01,2014-01-31 08:44:00,
2014-01-31 03:49:00,29.8,17.9,29.70,NW,312,3.7,3.9,61,0.00,,---,0.00,VWS V14.01,2014-01-31 08:49:00,
2014-01-31 03:54:00,29.8,18.5,29.70,NW,319,2.7,2.7,62,0.00,,---,0.00,VWS V14.01,2014-01-31 08:54:00,
2014-01-31 03:59:00,29.7,18.3,29.70,NNW,335,4.1,4.1,62,0.00,,---,0.00,VWS V14.01,2014-01-31 08:59:00,
2014-01-31 04:04:00,29.7,17.8,29.70,NW,323,4.5,4.6,61,0.00,,---,0.00,VWS V14.01,2014-01-31 09:04:00,
2014-01-31 04:09:00,29.8,17.9,29.70,NW,323,0.0,0.0,61,0.00,,---,0.00,VWS V14.01,2014-01-31 09:09:00,
2014-01-31 04:14:00,29.9,18.4,29.71,NW,322,3.1,4.2,62,0.00,,---,0.00,VWS V14.01,2014-01-31 09:14:00,
2014-01-31 04:19:00,29.8,18.1,29.71,NW,309,4.4,5.2,61,0.00,,---,0.00,VWS V14.01,2014-01-31 09:19:00,
2014-01-31 04:24:00,29.9,17.9,29.71,WNW,291,2.8,3.8,60,0.00,,---,0.00,VWS V14.01,2014-01-31 09:24:00,
2014-01-31 04:29:00,29.8,18.0,29.70,West,270,2.7,5.1,61,0.00,,---,0.00,VWS V14.01,2014-01-31 09:29:00,
2014-01-31 04:34:00,29.7,17.8,29.70,NW,318,2.9,3.0,61,0.00,,---,0.00,VWS V14.01,2014-01-31 09:34:00,
2014-01-31 04:39:00,29.6,17.5,29.70,NW,325,0.0,0.0,60,0.00,,---,0.00,VWS V14.01,2014-01-31 09:39:00,
2014-01-31 04:44:00,29.5,17.3,29.71,NW,325,0.0,0.0,60,0.00,,---,0.00,VWS V14.01,2014-01-31 09:44:00,
2014-01-31 04:50:00,29.4,17.1,29.71,West,277,3.1,3.1,60,0.00,,---,0.00,VWS V14.01,2014-01-31 09:50:00,
2014-01-31 04:55:00,29.5,17.1,29.71,West,278,1.4,1.9,59,0.00,,---,0.00,VWS V14.01,2014-01-31 09:55:00,
2014-01-31 05:00:00,29.6,17.1,29.71,WNW,288,2.1,2.7,59,0.00,,---,0.00,VWS V14.01,2014-01-31 10:00:00,
2014-01-31 05:05:00,29.7,17.6,29.71,NNW,332,0.6,1.0,60,0.00,,---,0.00,VWS V14.01,2014-01-31 10:05:00,
2014-01-31 05:10:00,29.7,17.3,29.71,NNW,347,0.0,0.0,59,0.00,,---,0.00,VWS V14.01,2014-01-31 10:10:00,
2014-01-31 05:15:00,29.7,17.3,29.71,WNW,284,2.7,3.6,60,0.00,,---,0.00,VWS V14.01,2014-01-31 10:15:00,
2014-01-31 05:20:00,29.9,17.2,29.70,NW,305,1.6,2.5,59,0.00,,---,0.00,VWS V14.01,2014-01-31 10:20:00,
2014-01-31 05:25:00,29.9,17.0,29.70,NNW,328,3.2,3.4,58,0.00,,---,0.00,VWS V14.01,2014-01-31 10:25:00,
2014-01-31 05:30:00,30.0,16.9,29.71,WNW,301,2.4,3.3,58,0.00,,---,0.00,VWS V14.01,2014-01-31 10:30:00,
2014-01-31 05:35:00,30.0,16.8,29.71,NNW,335,0.0,0.0,57,0.00,,---,0.00,VWS V14.01,2014-01-31 10:35:00,
2014-01-31 05:40:00,30.0,16.3,29.71,NW,307,0.0,0.0,56,0.00,,---,0.00,VWS V14.01,2014-01-31 10:40:00,
2014-01-31 05:45:00,30.1,16.3,29.71,WNW,292,0.0,0.0,56,0.00,,---,0.00,VWS V14.01,2014-01-31 10:45:00,
2014-01-31 05:50:00,30.0,16.0,29.71,NW,316,0.0,0.0,56,0.00,,---,0.00,VWS V14.01,2014-01-31 10:50:00,
2014-01-31 05:55:00,30.0,16.3,29.72,WNW,290,0.0,0.0,56,0.00,,---,0.00,VWS V14.01,2014-01-31 10:55:00,
2014-01-31 06:00:00,29.8,16.0,29.72,WNW,290,0.0,0.0,56,0.00,,---,0.00,VWS V14.01,2014-01-31 11:00:00,
2014-01-31 06:05:00,29.7,15.7,29.71,NNW,340,0.0,0.0,55,0.00,,---,0.00,VWS V14.01,2014-01-31 11:05:00,
2014-01-31 06:10:00,29.7,15.5,29.72,NNW,340,0.0,0.0,55,0.00,,---,0.00,VWS V14.01,2014-01-31 11:10:00,
2014-01-31 06:16:00,29.7,15.4,29.72,NNW,340,0.0,0.0,55,0.00,,---,0.00,VWS V14.01,2014-01-31 11:16:00,
2014-01-31 06:21:00,29.7,15.5,29.72,NNW,340,0.0,0.0,55,0.00,,---,0.00,VWS V14.01,2014-01-31 11:21:00,
2014-01-31 06:26:00,29.7,15.5,29.73,NNW,340,0.0,0.0,55,0.00,,---,0.00,VWS V14.01,2014-01-31 11:26:00,
2014-01-31 06:31:00,29.7,15.7,29.73,NNW,340,0.0,0.0,55,0.00,,---,0.00,VWS V14.01,2014-01-31 11:31:00,
2014-01-31 06:36:00,29.6,15.1,29.72,NNW,340,0.0,0.0,54,0.00,,---,0.00,VWS V14.01,2014-01-31 11:36:00,
2014-01-31 06:41:00,29.6,15.5,29.73,NNW,340,0.0,0.0,55,0.00,,---,0.00,VWS V14.01,2014-01-31 11:41:00,
2014-01-31 06:46:00,29.6,15.6,29.73,NNW,340,0.0,0.0,55,0.00,,---,0.00,VWS V14.01,2014-01-31 11:46:00,
2014-01-31 06:51:00,29.5,16.0,29.73,NNW,340,0.0,0.0,57,0.00,,---,0.00,VWS V14.01,2014-01-31 11:51:00,
2014-01-31 06:56:00,29.2,15.9,29.73,NNW,340,0.0,0.0,57,0.00,,---,0.00,VWS V14.01,2014-01-31 11:56:00,
2014-01-31 07:01:00,29.2,16.3,29.73,NNW,340,0.0,0.0,58,0.00,,---,0.00,VWS V14.01,2014-01-31 12:01:00,
2014-01-31 07:06:00,29.0,16.9,29.73,WNW,290,0.0,0.0,60,0.00,,---,0.00,VWS V14.01,2014-01-31 12:06:00,
2014-01-31 07:11:00,28.9,16.7,29.73,WNW,298,0.0,0.0,60,0.00,,---,0.00,VWS V14.01,2014-01-31 12:11:00,
2014-01-31 07:16:00,28.7,16.1,29.73,WNW,298,0.0,0.0,59,0.00,,---,0.00,VWS V14.01,2014-01-31 12:16:00,
2014-01-31 07:21:00,28.7,16.4,29.74,WNW,298,0.0,0.0,59,0.00,,---,0.00,VWS V14.01,2014-01-31 12:21:00,
2014-01-31 07:26:00,28.7,16.3,29.74,NW,307,1.7,1.7,59,0.00,,---,0.00,VWS V14.01,2014-01-31 12:26:00,
2014-01-31 07:31:00,28.8,15.5,29.74,WNW,294,0.0,0.0,57,0.00,,---,0.00,VWS V14.01,2014-01-31 12:31:00,
2014-01-31 07:37:00,28.8,16.1,29.74,NW,314,0.0,0.0,59,0.00,,---,0.00,VWS V14.01,2014-01-31 12:37:00,
2014-01-31 07:42:00,28.8,15.9,29.75,NW,314,0.0,0.0,58,0.00,,---,0.00,VWS V14.01,2014-01-31 12:42:00,
2014-01-31 07:47:00,28.9,15.8,29.75,NW,315,0.0,0.0,57,0.00,,---,0.00,VWS V14.01,2014-01-31 12:47:00,
2014-01-31 07:52:00,29.0,14.3,29.75,NW,315,0.0,0.0,54,0.00,,---,0.00,VWS V14.01,2014-01-31 12:52:00,
2014-01-31 07:57:00,29.4,13.7,29.75,NW,315,0.0,0.0,52,0.00,,---,0.00,VWS V14.01,2014-01-31 12:57:00,
2014-01-31 08:02:00,30.1,14.9,29.75,NW,307,0.0,0.0,53,0.00,,---,0.00,VWS V14.01,2014-01-31 13:02:00,
2014-01-31 08:07:00,30.6,15.3,29.76,NW,322,0.0,0.0,52,0.00,,---,0.00,VWS V14.01,2014-01-31 13:07:00,
2014-01-31 08:12:00,30.9,15.8,29.76,North,354,0.0,0.0,53,0.00,,---,0.00,VWS V14.01,2014-01-31 13:12:00,
2014-01-31 08:17:00,31.3,16.2,29.76,NW,314,0.0,0.0,53,0.00,,---,0.00,VWS V14.01,2014-01-31 13:17:00,
2014-01-31 08:22:00,31.5,16.5,29.76,NW,314,0.0,0.0,53,0.00,,---,0.00,VWS V14.01,2014-01-31 13:22:00,
2014-01-31 08:27:00,31.7,16.4,29.77,NW,314,0.0,0.0,53,0.00,,---,0.00,VWS V14.01,2014-01-31 13:27:00,
2014-01-31 08:32:00,32.0,16.3,29.77,NW,315,0.0,0.0,52,0.00,,---,0.00,VWS V14.01,2014-01-31 13:32:00,
2014-01-31 08:37:00,32.4,16.8,29.77,NW,315,0.0,0.0,52,0.00,,---,0.00,VWS V14.01,2014-01-31 13:37:00,
2014-01-31 08:42:00,32.6,17.6,29.77,NW,315,0.0,0.0,54,0.00,,---,0.00,VWS V14.01,2014-01-31 13:42:00,
2014-01-31 08:47:00,32.7,18.0,29.77,NW,315,0.0,0.0,54,0.00,,---,0.00,VWS V14.01,2014-01-31 13:47:00,
2014-01-31 08:52:00,32.9,18.7,29.77,NW,314,0.0,0.0,56,0.00,,---,0.00,VWS V14.01,2014-01-31 13:52:00,
2014-01-31 08:58:00,33.1,18.7,29.77,NW,314,0.0,0.0,55,0.00,,---,0.00,VWS V14.01,2014-01-31 13:58:00,
2014-01-31 09:03:00,33.7,18.4,29.76,NW,314,0.0,0.0,53,0.00,,---,0.00,VWS V14.01,2014-01-31 14:03:00,
2014-01-31 09:08:00,34.3,18.2,29.76,NNW,342,0.0,0.0,51,0.00,,---,0.00,VWS V14.01,2014-01-31 14:08:00,
2014-01-31 09:13:00,35.1,18.6,29.76,NNW,329,0.0,0.0,50,0.00,,---,0.00,VWS V14.01,2014-01-31 14:13:00,
2014-01-31 09:18:00,35.8,19.3,29.77,NW,307,0.0,0.0,51,0.00,,---,0.00,VWS V14.01,2014-01-31 14:18:00,
2014-01-31 09:23:00,36.7,19.3,29.77,NW,307,0.0,0.0,49,0.00,,---,0.00,VWS V14.01,2014-01-31 14:23:00,
2014-01-31 09:28:00,37.3,19.5,29.77,NNW,330,0.0,0.0,48,0.00,,---,0.00,VWS V14.01,2014-01-31 14:28:00,
2014-01-31 09:33:00,37.9,19.7,29.77,WNW,284,0.0,0.0,47,0.00,,---,0.00,VWS V14.01,2014-01-31 14:33:00,
2014-01-31 09:38:00,38.0,19.8,29.77,WNW,284,0.0,0.0,47,0.00,,---,0.00,VWS V14.01,2014-01-31 14:38:00,
2014-01-31 09:43:00,38.1,19.8,29.77,NW,309,0.0,0.0,47,0.00,,---,0.00,VWS V14.01,2014-01-31 14:43:00,
2014-01-31 09:48:00,38.2,19.7,29.77,NW,311,0.0,0.0,47,0.00,,---,0.00,VWS V14.01,2014-01-31 14:48:00,
2014-01-31 09:53:00,38.5,19.0,29.78,NW,315,0.0,0.0,45,0.00,,---,0.00,VWS V14.01,2014-01-31 14:53:00,
2014-01-31 09:58:00,38.8,20.3,29.78,WNW,284,0.0,0.0,47,0.00,,---,0.00,VWS V14.01,2014-01-31 14:58:00,
2014-01-31 10:03:00,39.3,19.9,29.78,West,271,0.0,0.0,45,0.00,,---,0.00,VWS V14.01,2014-01-31 15:03:00,
2014-01-31 10:08:00,39.8,20.6,29.79,West,277,0.0,0.0,46,0.00,,---,0.00,VWS V14.01,2014-01-31 15:08:00,
2014-01-31 10:13:00,40.5,19.6,29.79,West,278,0.0,0.0,43,0.00,,---,0.00,VWS V14.01,2014-01-31 15:13:00,
2014-01-31 10:19:00,41.1,20.1,29.79,WNW,294,0.0,0.0,43,0.00,,---,0.00,VWS V14.01,2014-01-31 15:19:00,
2014-01-31 10:24:00,41.3,20.6,29.79,WNW,294,0.0,0.0,43,0.00,,---,0.00,VWS V14.01,2014-01-31 15:24:00,
2014-01-31 10:29:00,41.2,18.1,29.79,NW,305,0.0,0.0,39,0.00,,---,0.00,VWS V14.01,2014-01-31 15:29:00,
2014-01-31 10:34:00,41.3,17.8,29.78,WNW,287,1.6,2.2,38,0.00,,---,0.00,VWS V14.01,2014-01-31 15:34:00,
2014-01-31 10:39:00,41.6,18.5,29.79,WNW,287,4.5,4.9,39,0.00,,---,0.00,VWS V14.01,2014-01-31 15:39:00,
2014-01-31 10:44:00,41.7,19.7,29.79,West,277,0.0,0.0,41,0.00,,---,0.00,VWS V14.01,2014-01-31 15:44:00,
2014-01-31 10:49:00,42.2,19.9,29.79,West,271,4.5,4.7,40,0.00,,---,0.00,VWS V14.01,2014-01-31 15:49:00,
2014-01-31 10:54:00,42.2,19.6,29.79,WNW,283,0.0,0.0,40,0.00,,---,0.00,VWS V14.01,2014-01-31 15:54:00,
2014-01-31 10:59:00,41.9,19.2,29.79,NW,308,1.6,1.9,40,0.00,,---,0.00,VWS V14.01,2014-01-31 15:59:00,
2014-01-31 11:04:00,41.7,18.7,29.78,WNW,283,4.7,4.9,39,0.00,,---,0.00,VWS V14.01,2014-01-31 16:04:00,
2014-01-31 11:09:00,41.6,18.1,29.78,West,273,8.0,8.0,38,0.00,,---,0.00,VWS V14.01,2014-01-31 16:09:00,
2014-01-31 11:14:00,41.6,19.0,29.78,NNW,335,0.0,0.0,40,0.00,,---,0.00,VWS V14.01,2014-01-31 16:14:00,
2014-01-31 11:19:00,41.8,19.7,29.78,NW,308,2.1,2.9,41,0.00,,---,0.00,VWS V14.01,2014-01-31 16:19:00,
2014-01-31 11:24:00,42.0,19.1,29.77,West,267,0.0,0.0,40,0.00,,---,0.00,VWS V14.01,2014-01-31 16:24:00,
2014-01-31 11:29:00,42.3,20.2,29.78,WNW,285,6.6,6.7,41,0.00,,---,0.00,VWS V14.01,2014-01-31 16:29:00,
2014-01-31 11:34:00,42.5,20.0,29.78,NW,305,2.2,2.9,40,0.00,,---,0.00,VWS V14.01,2014-01-31 16:34:00,
2014-01-31 11:40:00,42.6,20.5,29.78,West,280,2.8,3.2,41,0.00,,---,0.00,VWS V14.01,2014-01-31 16:40:00,
2014-01-31 11:45:00,42.8,20.3,29.78,NW,319,3.0,4.7,40,0.00,,---,0.00,VWS V14.01,2014-01-31 16:45:00,
2014-01-31 11:50:00,43.0,20.8,29.77,NW,325,0.0,2.1,41,0.00,,---,0.00,VWS V14.01,2014-01-31 16:50:00,
2014-01-31 11:55:00,43.3,21.0,29.77,WNW,300,0.0,0.7,41,0.00,,---,0.00,VWS V14.01,2014-01-31 16:55:00,
2014-01-31 12:00:00,43.7,20.6,29.77,NW,312,4.8,5.4,39,0.00,,---,0.00,VWS V14.01,2014-01-31 17:00:00,
2014-01-31 12:05:00,43.9,21.1,29.77,NW,304,2.8,2.8,40,0.00,,---,0.00,VWS V14.01,2014-01-31 17:05:00,
2014-01-31 12:10:00,44.2,21.6,29.77,WNW,295,4.5,4.5,40,0.00,,---,0.00,VWS V14.01,2014-01-31 17:10:00,
2014-01-31 12:15:00,44.4,21.7,29.77,NW,323,3.5,4.4,40,0.00,,---,0.00,VWS V14.01,2014-01-31 17:15:00,
2014-01-31 12:20:00,44.6,21.3,29.76,WNW,291,5.0,5.2,39,0.00,,---,0.00,VWS V14.01,2014-01-31 17:20:00,
2014-01-31 12:25:00,44.8,22.0,29.76,West,259,5.5,5.5,40,0.00,,---,0.00,VWS V14.01,2014-01-31 17:25:00,
2014-01-31 12:30:00,45.1,22.2,29.76,NW,311,5.8,6.7,40,0.00,,---,0.00,VWS V14.01,2014-01-31 17:30:00,
2014-01-31 12:35:00,45.6,23.0,29.76,WNW,291,3.5,4.8,41,0.00,,---,0.00,VWS V14.01,2014-01-31 17:35:00,
2014-01-31 12:40:00,45.9,24.9,29.75,West,271,0.0,0.0,43,0.00,,---,0.00,VWS V14.01,2014-01-31 17:40:00,
2014-01-31 12:45:00,46.4,25.1,29.75,WNW,285,0.0,0.0,43,0.00,,---,0.00,VWS V14.01,2014-01-31 17:45:00,
2014-01-31 12:50:00,46.8,24.9,29.75,WNW,291,8.0,8.0,42,0.00,,---,0.00,VWS V14.01,2014-01-31 17:50:00,
2014-01-31 12:55:00,46.8,24.7,29.74,WNW,301,0.0,0.9,42,0.00,,---,0.00,VWS V14.01,2014-01-31 17:55:00,
2014-01-31 13:01:00,46.7,25.2,29.74,NW,319,4.5,4.9,43,0.00,,---,0.00,VWS V14.01,2014-01-31 18:01:00,
2014-01-31 13:06:00,46.6,25.9,29.74,NNW,332,3.9,3.9,44,0.00,,---,0.00,VWS V14.01,2014-01-31 18:06:00,
2014-01-31 13:11:00,46.7,26.1,29.74,NW,311,3.5,5.6,44,0.00,,---,0.00,VWS V14.01,2014-01-31 18:11:00,
2014-01-31 13:16:00,46.6,26.1,29.73,WNW,295,6.0,6.7,44,0.00,,---,0.00,VWS V14.01,2014-01-31 18:16:00,
2014-01-31 13:21:00,46.6,25.6,29.73,NW,322,12.6,12.6,44,0.00,,---,0.00,VWS V14.01,2014-01-31 18:21:00,
2014-01-31 13:26:00,46.5,25.1,29.74,WNW,301,5.5,8.3,43,0.00,,---,0.00,VWS V14.01,2014-01-31 18:26:00,
2014-01-31 13:31:00,46.8,25.6,29.74,North,359,9.8,9.8,43,0.00,,---,0.00,VWS V14.01,2014-01-31 18:31:00,
2014-01-31 13:36:00,47.0,26.0,29.73,NW,314,4.8,4.8,44,0.00,,---,0.00,VWS V14.01,2014-01-31 18:36:00,
2014-01-31 13:41:00,47.2,26.4,29.73,WNW,298,1.9,1.9,44,0.00,,---,0.00,VWS V14.01,2014-01-31 18:41:00,
2014-01-31 13:46:00,47.7,27.0,29.73,WNW,285,12.6,13.2,44,0.00,,---,0.00,VWS V14.01,2014-01-31 18:46:00,
2014-01-31 13:51:00,48.1,26.5,29.73,West,263,9.6,10.1,43,0.00,,---,0.00,VWS V14.01,2014-01-31 18:51:00,
2014-01-31 13:56:00,48.2,26.6,29.73,WNW,287,6.8,10.0,43,0.00,,---,0.00,VWS V14.01,2014-01-31 18:56:00,
2014-01-31 14:01:00,48.0,27.2,29.72,WNW,292,4.6,4.6,44,0.00,,---,0.00,VWS V14.01,2014-01-31 19:01:00,
2014-01-31 14:06:00,47.9,28.2,29.73,WNW,298,7.7,7.9,46,0.00,,---,0.00,VWS V14.01,2014-01-31 19:06:00,
2014-01-31 14:11:00,47.7,28.3,29.73,NW,304,5.7,6.0,47,0.00,,---,0.00,VWS V14.01,2014-01-31 19:11:00,
2014-01-31 14:17:00,47.7,28.1,29.73,West,266,1.9,3.6,46,0.00,,---,0.00,VWS V14.01,2014-01-31 19:17:00,
2014-01-31 14:22:00,47.6,29.2,29.73,NW,307,8.3,18.3,49,0.00,,---,0.00,VWS V14.01,2014-01-31 19:22:00,
2014-01-31 14:27:00,47.4,28.5,29.72,NW,319,7.0,9.1,48,0.00,,---,0.00,VWS V14.01,2014-01-31 19:27:00,
2014-01-31 14:32:00,47.2,28.4,29.72,NW,326,7.1,7.2,48,0.00,,---,0.00,VWS V14.01,2014-01-31 19:32:00,
2014-01-31 14:37:00,47.1,28.6,29.72,West,269,1.1,7.7,48,0.00,,---,0.00,VWS V14.01,2014-01-31 19:37:00,
2014-01-31 14:42:00,47.1,28.1,29.72,WNW,295,3.7,5.5,47,0.00,,---,0.00,VWS V14.01,2014-01-31 19:42:00,
2014-01-31 14:47:00,47.2,29.3,29.72,NW,316,8.9,8.9,50,0.00,,---,0.00,VWS V14.01,2014-01-31 19:47:00,
2014-01-31 14:52:00,47.0,28.1,29.72,NW,308,9.2,9.4,48,0.00,,---,0.00,VWS V14.01,2014-01-31 19:52:00,
2014-01-31 14:57:00,46.5,28.5,29.73,North,8,7.3,8.9,49,0.00,,---,0.00,VWS V14.01,2014-01-31 19:57:00,
2014-01-31 15:02:00,46.1,27.9,29.72,WNW,295,5.7,5.7,49,0.00,,---,0.00,VWS V14.01,2014-01-31 20:02:00,
2014-01-31 15:07:00,46.0,28.3,29.73,NW,315,6.5,9.6,50,0.00,,---,0.00,VWS V14.01,2014-01-31 20:07:00,
2014-01-31 15:12:00,45.9,28.2,29.73,WNW,301,2.1,4.7,50,0.00,,---,0.00,VWS V14.01,2014-01-31 20:12:00,
2014-01-31 15:17:00,45.8,27.8,29.73,NNW,329,7.9,10.7,49,0.00,,---,0.00,VWS V14.01,2014-01-31 20:17:00,
2014-01-31 15:22:00,45.8,27.2,29.73,WNW,291,8.0,8.3,48,0.00,,---,0.00,VWS V14.01,2014-01-31 20:22:00,
2014-01-31 15:27:00,45.7,27.2,29.73,North,350,6.0,8.3,48,0.00,,---,0.00,VWS V14.01,2014-01-31 20:27:00,
2014-01-31 15:32:00,45.9,28.2,29.74,NNE,14,1.2,1.2,50,0.00,,---,0.00,VWS V14.01,2014-01-31 20:32:00,
2014-01-31 15:38:00,46.0,28.3,29.74,NW,321,2.4,2.4,50,0.00,,---,0.00,VWS V14.01,2014-01-31 20:38:00,
2014-01-31 15:43:00,46.0,27.4,29.74,NW,305,6.0,6.0,48,0.00,,---,0.00,VWS V14.01,2014-01-31 20:43:00,
2014-01-31 15:48:00,45.6,27.4,29.74,NW,323,10.7,10.7,49,0.00,,---,0.00,VWS V14.01,2014-01-31 20:48:00,
2014-01-31 15:53:00,45.6,28.2,29.74,NW,312,2.9,2.9,50,0.00,,---,0.00,VWS V14.01,2014-01-31 20:53:00,
2014-01-31 15:58:00,45.6,27.9,29.74,WNW,291,3.4,4.0,50,0.00,,---,0.00,VWS V14.01,2014-01-31 20:58:00,
2014-01-31 16:03:00,45.4,26.7,29.74,NW,322,7.8,8.1,48,0.00,,---,0.00,VWS V14.01,2014-01-31 21:03:00,
2014-01-31 16:08:00,45.1,26.5,29.74,WNW,284,0.0,1.1,48,0.00,,---,0.00,VWS V14.01,2014-01-31 21:08:00,
2014-01-31 16:13:00,44.8,26.5,29.74,NW,316,3.9,5.0,48,0.00,,---,0.00,VWS V14.01,2014-01-31 21:13:00,
2014-01-31 16:18:00,44.5,26.9,29.74,NW,309,11.8,12.2,50,0.00,,---,0.00,VWS V14.01,2014-01-31 21:18:00,
2014-01-31 16:23:00,44.2,26.5,29.74,NNW,333,0.0,0.0,49,0.00,,---,0.00,VWS V14.01,2014-01-31 21:23:00,
2014-01-31 16:28:00,44.1,26.8,29.75,NNW,346,3.2,3.2,50,0.00,,---,0.00,VWS V14.01,2014-01-31 21:28:00,
2014-01-31 16:33:00,44.1,26.3,29.75,NNW,330,0.0,0.0,49,0.00,,---,0.00,VWS V14.01,2014-01-31 21:33:00,
2014-01-31 16:38:00,44.0,27.0,29.75,WNW,292,0.0,0.0,51,0.00,,---,0.00,VWS V14.01,2014-01-31 21:38:00,
2014-01-31 16:43:00,43.7,26.2,29.75,NNW,340,0.0,0.0,50,0.00,,---,0.00,VWS V14.01,2014-01-31 21:43:00,
2014-01-31 16:48:00,43.3,26.9,29.75,NW,311,0.0,0.0,52,0.00,,---,0.00,VWS V14.01,2014-01-31 21:48:00,
2014-01-31 16:53:00,42.9,26.1,29.75,NW,319,2.7,4.0,51,0.00,,---,0.00,VWS V14.01,2014-01-31 21:53:00,
2014-01-31 16:59:00,42.5,25.8,29.76,NW,318,0.0,0.0,51,0.00,,---,0.00,VWS V14.01,2014-01-31 21:59:00,
2014-01-31 17:04:00,42.2,25.5,29.76,WNW,295,4.7,7.0,51,0.00,,---,0.00,VWS V14.01,2014-01-31 22:04:00,
2014-01-31 17:09:00,41.8,25.1,29.77,WNW,298,0.0,0.0,51,0.00,,---,0.00,VWS V14.01,2014-01-31 22:09:00,
2014-01-31 17:14:00,41.4,24.8,29.77,West,273,0.0,0.0,51,0.00,,---,0.00,VWS V14.01,2014-01-31 22:14:00,
2014-01-31 17:19:00,41.2,23.5,29.77,West,273,0.0,0.0,49,0.00,,---,0.00,VWS V14.01,2014-01-31 22:19:00,
2014-01-31 17:24:00,41.1,23.8,29.77,NW,314,0.0,0.0,50,0.00,,---,0.00,VWS V14.01,2014-01-31 22:24:00,
2014-01-31 17:29:00,40.4,24.0,29.77,NW,314,0.0,0.0,52,0.00,,---,0.00,VWS V14.01,2014-01-31 22:29:00,
2014-01-31 17:34:00,39.6,23.5,29.77,NW,305,0.0,0.0,52,0.00,,---,0.00,VWS V14.01,2014-01-31 22:34:00,
2014-01-31 17:39:00,39.2,24.2,29.77,NW,305,0.0,0.0,54,0.00,,---,0.00,VWS V14.01,2014-01-31 22:39:00,
2014-01-31 17:44:00,38.7,24.0,29.77,NNE,15,0.0,0.0,55,0.00,,---,0.00,VWS V14.01,2014-01-31 22:44:00,
2014-01-31 17:49:00,38.2,23.6,29.77,NNW,332,0.0,0.0,55,0.00,,---,0.00,VWS V14.01,2014-01-31 22:49:00,
2014-01-31 17:54:00,37.5,23.9,29.77,NNW,332,0.0,0.0,58,0.00,,---,0.00,VWS V14.01,2014-01-31 22:54:00,
2014-01-31 17:59:00,36.8,24.5,29.77,WNW,294,0.0,0.0,61,0.00,,---,0.00,VWS V14.01,2014-01-31 22:59:00,
2014-01-31 18:04:00,36.1,23.8,29.77,NW,318,1.0,1.0,61,0.00,,---,0.00,VWS V14.01,2014-01-31 23:04:00,
2014-01-31 18:09:00,35.6,23.4,29.77,NW,312,0.0,0.0,61,0.00,,---,0.00,VWS V14.01,2014-01-31 23:09:00,
2014-01-31 18:14:00,35.1,23.7,29.77,West,281,3.1,3.1,63,0.00,,---,0.00,VWS V14.01,2014-01-31 23:14:00,
2014-01-31 18:20:00,34.7,23.2,29.77,West,281,0.0,0.0,62,0.00,,---,0.00,VWS V14.01,2014-01-31 23:20:00,
2014-01-31 18:25:00,34.5,22.3,29.78,West,281,0.0,0.0,61,0.00,,---,0.00,VWS V14.01,2014-01-31 23:25:00,
2014-01-31 18:30:00,34.5,21.9,29.78,West,281,0.0,0.0,60,0.00,,---,0.00,VWS V14.01,2014-01-31 23:30:00,
2014-01-31 18:35:00,34.5,21.8,29.78,West,281,0.0,0.0,59,0.00,,---,0.00,VWS V14.01,2014-01-31 23:35:00,
2014-01-31 18:40:00,34.3,23.0,29.78,West,281,0.0,0.0,63,0.00,,---,0.00,VWS V14.01,2014-01-31 23:40:00,
2014-01-31 18:45:00,33.9,23.2,29.78,NW,307,3.0,3.0,64,0.00,,---,0.00,VWS V14.01,2014-01-31 23:45:00,
2014-01-31 18:50:00,33.4,23.1,29.78,WNW,290,0.0,0.0,66,0.00,,---,0.00,VWS V14.01,2014-01-31 23:50:00,
2014-01-31 18:55:00,33.0,22.6,29.79,WNW,290,0.0,0.0,65,0.00,,---,0.00,VWS V14.01,2014-01-31 23:55:00,
2014-01-31 19:00:00,32.7,22.2,29.79,WNW,290,0.0,0.0,65,0.00,,---,0.00,VWS V14.01,2014-02-01 00:00:00,
2014-01-31 19:05:00,32.6,21.9,29.79,WNW,290,0.0,0.0,64,0.00,,---,0.00,VWS V14.01,2014-02-01 00:05:00,
2014-01-31 19:10:00,32.5,21.8,29.79,WNW,290,0.0,0.0,64,0.00,,---,0.00,VWS V14.01,2014-02-01 00:10:00,
2014-01-31 19:15:00,32.6,21.9,29.79,WNW,290,0.0,0.0,64,0.00,,---,0.00,VWS V14.01,2014-02-01 00:15:00,
2014-01-31 19:20:00,32.8,21.7,29.79,WNW,290,0.0,0.0,63,0.00,,---,0.00,VWS V14.01,2014-02-01 00:20:00,
2014-01-31 19:25:00,33.0,21.4,29.79,WNW,290,0.0,0.0,62,0.00,,---,0.00,VWS V14.01,2014-02-01 00:25:00,
2014-01-31 19:30:00,33.2,20.6,29.79,WNW,290,0.0,0.0,60,0.00,,---,0.00,VWS V14.01,2014-02-01 00:30:00,
2014-01-31 19:35:00,33.4,20.6,29.79,WNW,290,0.0,0.0,59,0.00,,---,0.00,VWS V14.01,2014-02-01 00:35:00,
2014-01-31 19:41:00,34.0,20.9,29.79,West,271,0.0,0.0,58,0.00,,---,0.00,VWS V14.01,2014-02-01 00:41:00,
2014-01-31 19:46:00,34.7,21.2,29.80,West,271,0.0,0.0,57,0.00,,---,0.00,VWS V14.01,2014-02-01 00:46:00,
2014-01-31 19:51:00,35.1,21.7,29.80,West,271,0.0,0.0,58,0.00,,---,0.00,VWS V14.01,2014-02-01 00:51:00,
2014-01-31 19:56:00,35.3,21.9,29.80,West,278,0.8,1.8,58,0.00,,---,0.00,VWS V14.01,2014-02-01 00:56:00,
2014-01-31 20:01:00,35.6,22.0,29.79,WNW,301,0.0,1.4,57,0.00,,---,0.00,VWS V14.01,2014-02-01 01:01:00,
2014-01-31 20:06:00,35.8,22.2,29.79,WNW,291,3.1,3.1,57,0.00,,---,0.00,VWS V14.01,2014-02-01 01:06:00,
2014-01-31 20:11:00,36.0,21.8,29.79,West,274,0.0,0.0,56,0.00,,---,0.00,VWS V14.01,2014-02-01 01:11:00,
2014-01-31 20:16:00,36.3,22.2,29.79,WNW,287,1.3,3.0,56,0.00,,---,0.00,VWS V14.01,2014-02-01 01:16:00,
2014-01-31 20:21:00,36.4,22.3,29.79,WNW,288,3.9,4.7,56,0.00,,---,0.00,VWS V14.01,2014-02-01 01:21:00,
2014-01-31 20:26:00,36.3,22.1,29.79,West,278,0.0,0.0,56,0.00,,---,0.00,VWS V14.01,2014-02-01 01:26:00,
2014-01-31 20:31:00,36.2,22.2,29.80,WNW,285,0.0,0.0,56,0.00,,---,0.00,VWS V14.01,2014-02-01 01:31:00,
2014-01-31 20:36:00,36.1,22.4,29.80,WNW,285,2.7,3.2,57,0.00,,---,0.00,VWS V14.01,2014-02-01 01:36:00,
2014-01-31 20:41:00,35.8,22.2,29.80,WNW,285,3.1,5.0,57,0.00,,---,0.00,VWS V14.01,2014-02-01 01:41:00,
2014-01-31 20:46:00,35.7,21.9,29.80,WNW,290,1.9,7.0,57,0.00,,---,0.00,VWS V14.01,2014-02-01 01:46:00,
2014-01-31 20:52:00,35.7,22.1,29.80,West,274,0.0,0.0,57,0.00,,---,0.00,VWS V14.01,2014-02-01 01:52:00,
2014-01-31 20:57:00,35.6,22.0,29.80,WNW,285,0.0,0.0,57,0.00,,---,0.00,VWS V14.01,2014-02-01 01:57:00,
2014-01-31 21:02:00,35.6,22.0,29.80,WNW,287,0.0,0.0,57,0.00,,---,0.00,VWS V14.01,2014-02-01 02:02:00,
2014-01-31 21:07:00,35.6,21.9,29.80,West,266,2.0,3.0,57,0.00,,---,0.00,VWS V14.01,2014-02-01 02:07:00,
2014-01-31 21:12:00,35.6,21.9,29.80,North,359,0.0,0.0,57,0.00,,---,0.00,VWS V14.01,2014-02-01 02:12:00,
2014-01-31 21:17:00,35.7,21.9,29.80,West,280,0.0,0.0,57,0.00,,---,0.00,VWS V14.01,2014-02-01 02:17:00,
2014-01-31 21:22:00,35.9,21.8,29.81,West,270,0.0,0.0,56,0.00,,---,0.00,VWS V14.01,2014-02-01 02:22:00,
2014-01-31 21:27:00,36.0,21.7,29.81,WNW,290,2.0,2.3,56,0.00,,---,0.00,VWS V14.01,2014-02-01 02:27:00,
2014-01-31 21:32:00,36.1,21.5,29.81,West,278,0.0,2.2,55,0.00,,---,0.00,VWS V14.01,2014-02-01 02:32:00,
2014-01-31 21:37:00,36.0,21.2,29.81,WNW,287,3.6,5.8,54,0.00,,---,0.00,VWS V14.01,2014-02-01 02:37:00,
2014-01-31 21:42:00,35.9,21.0,29.81,West,281,1.9,1.9,54,0.00,,---,0.00,VWS V14.01,2014-02-01 02:42:00,
2014-01-31 21:47:00,35.8,20.8,29.81,WNW,283,3.0,3.4,54,0.00,,---,0.00,VWS V14.01,2014-02-01 02:47:00,
2014-01-31 21:53:00,35.8,20.5,29.81,WNW,287,1.4,4.7,53,0.00,,---,0.00,VWS V14.01,2014-02-01 02:53:00,
2014-01-31 21:58:00,35.8,20.4,29.81,WNW,297,5.0,6.3,53,0.00,,---,0.00,VWS V14.01,2014-02-01 02:58:00,
2014-01-31 22:03:00,35.8,20.0,29.81,West,267,2.5,2.6,52,0.00,,---,0.00,VWS V14.01,2014-02-01 03:03:00,
2014-01-31 22:08:00,35.8,19.8,29.81,WNW,300,1.1,7.7,52,0.00,,---,0.00,VWS V14.01,2014-02-01 03:08:00,
2014-01-31 22:13:00,35.7,19.5,29.81,WNW,288,0.0,7.7,51,0.00,,---,0.00,VWS V14.01,2014-02-01 03:13:00,
2014-01-31 22:18:00,35.8,19.5,29.81,West,277,6.2,6.2,51,0.00,,---,0.00,VWS V14.01,2014-02-01 03:18:00,
2014-01-31 22:23:00,35.9,19.6,29.81,North,359,4.8,4.8,51,0.00,,---,0.00,VWS V14.01,2014-02-01 03:23:00,
2014-01-31 22:28:00,36.2,19.9,29.81,West,260,0.9,2.1,51,0.00,,---,0.00,VWS V14.01,2014-02-01 03:28:00,
2014-01-31 22:33:00,36.4,20.4,29.81,WNW,294,0.0,0.0,52,0.00,,---,0.00,VWS V14.01,2014-02-01 03:33:00,
2014-01-31 22:38:00,36.3,20.6,29.81,West,269,0.0,0.0,52,0.00,,---,0.00,VWS V14.01,2014-02-01 03:38:00,
2014-01-31 22:43:00,36.2,20.1,29.81,West,269,0.0,0.0,52,0.00,,---,0.00,VWS V14.01,2014-02-01 03:43:00,
2014-01-31 22:48:00,36.1,20.1,29.81,WNW,285,3.2,3.2,52,0.00,,---,0.00,VWS V14.01,2014-02-01 03:48:00,
2014-01-31 22:53:00,36.1,20.0,29.81,WNW,283,0.0,0.0,52,0.00,,---,0.00,VWS V14.01,2014-02-01 03:53:00,
2014-01-31 22:59:00,36.1,19.6,29.81,West,267,0.0,0.0,51,0.00,,---,0.00,VWS V14.01,2014-02-01 03:59:00,
2014-01-31 23:04:00,36.1,19.2,29.80,West,264,2.1,3.8,50,0.00,,---,0.00,VWS V14.01,2014-02-01 04:04:00,
2014-01-31 23:09:00,36.1,18.8,29.80,WNW,294,0.0,0.0,49,0.00,,---,0.00,VWS V14.01,2014-02-01 04:09:00,
2014-01-31 23:14:00,36.0,18.6,29.80,North,359,0.0,0.0,49,0.00,,---,0.00,VWS V14.01,2014-02-01 04:14:00,
2014-01-31 23:19:00,36.1,18.4,29.80,North,359,0.0,3.0,48,0.00,,---,0.00,VWS V14.01,2014-02-01 04:19:00,
2014-01-31 23:24:00,36.2,18.4,29.79,North,359,0.0,0.0,48,0.00,,---,0.00,VWS V14.01,2014-02-01 04:24:00,
2014-01-31 23:29:00,36.2,18.3,29.79,WNW,288,0.0,0.0,48,0.00,,---,0.00,VWS V14.01,2014-02-01 04:29:00,
2014-01-31 23:34:00,36.0,18.0,29.79,WNW,288,0.0,0.0,48,0.00,,---,0.00,VWS V14.01,2014-02-01 04:34:00,
2014-01-31 23:39:00,36.0,18.2,29.79,WNW,288,0.0,0.0,48,0.00,,---,0.00,VWS V14.01,2014-02-01 04:39:00,
2014-01-31 23:44:00,35.9,18.1,29.79,WNW,288,0.0,0.0,48,0.00,,---,0.00,VWS V14.01,2014-02-01 04:44:00,
2014-01-31 23:49:00,35.8,18.0,29.79,West,273,0.0,0.0,48,0.00,,---,0.00,VWS V14.01,2014-02-01 04:49:00,
2014-01-31 23:54:00,35.8,18.1,29.79,West,273,0.0,0.0,48,0.00,,---,0.00,VWS V14.01,2014-02-01 04:54:00,
2014-01-31 23:59:00,35.9,18.0,29.79,West,276,3.7,3.7,48,0.00,,---,0.00,VWS V14.01,2014-02-01 04:59:00,